This is the latest recevied weather packets stored in our database for station/object AF9W-5. If no packets are shown the sender has not sent any weather packets the latest 10 day(s).
| Time | Temp. | Humidity | Pressure | Rain* | Wind** | Luminosity | Snow |
|---|---|---|---|---|---|---|---|
| 1777733140 | 22.78° C | 28% | 1014.5 hPa | 0 mm | - | 276 W/m² | - |
| 1777732838 | 21.67° C | 30% | 1014.4 hPa | 0 mm | - | 261 W/m² | - |
| 1777732534 | 21.11° C | 29% | 1014.3 hPa | 0 mm | - | 245 W/m² | - |
| 1777732233 | 21.11° C | 30% | 1014.2 hPa | 0 mm | - | 229 W/m² | - |
| 1777731929 | 20.56° C | 30% | 1014.3 hPa | 0 mm | - | 212 W/m² | - |
| 1777731626 | 20.56° C | 30% | 1014.4 hPa | 0 mm | - | 195 W/m² | - |
| 1777731323 | 19.44° C | 32% | 1014.3 hPa | 0 mm | - | 177 W/m² | - |
| 1777731021 | 19.44° C | 33% | 1014.3 hPa | 0 mm | - | 159 W/m² | - |
| 1777730719 | 20° C | 32% | 1014.2 hPa | 0 mm | - | 145 W/m² | - |
| 1777730415 | 20.56° C | 31% | 1014.2 hPa | 0 mm | - | 132 W/m² | - |
| 1777730111 | 20° C | 31% | 1014 hPa | 0 mm | - | 120 W/m² | - |
| 1777729808 | 19.44° C | 34% | 1014.2 hPa | 0 mm | - | 106 W/m² | - |
| 1777729201 | 17.78° C | 35% | 1014 hPa | 0 mm | - | 79 W/m² | - |
| 1777728898 | 17.22° C | 36% | 1013.7 hPa | 0 mm | - | 68 W/m² | - |
| 1777728595 | 17.22° C | 36% | 1013.7 hPa | 0 mm | - | 57 W/m² | - |
| 1777728292 | 16.67° C | 36% | 1013.7 hPa | 0 mm | - | 45 W/m² | - |
| 1777727989 | 16.11° C | 36% | 1013.7 hPa | 0 mm | - | 36 W/m² | - |
| 1777727686 | 15.56° C | 38% | 1013.7 hPa | 0 mm | - | 31 W/m² | - |
| 1777727383 | 15° C | 38% | 1013.5 hPa | 0 mm | - | 26 W/m² | - |
| 1777727080 | 14.44° C | 40% | 1013.5 hPa | 0 mm | - | 23 W/m² | - |
| 1777726778 | 14.44° C | 40% | 1013.4 hPa | 0 mm | - | 17 W/m² | - |
| 1777726474 | 14.44° C | 40% | 1013.6 hPa | 0 mm | - | 14 W/m² | - |
| 1777725868 | 15° C | 39% | 1013.1 hPa | 0 mm | - | 8 W/m² | - |
| 1777725566 | 15.56° C | 38% | 1013.3 hPa | 0 mm | - | 5 W/m² | - |
| 1777725263 | 15.56° C | 37% | 1013.2 hPa | 0 mm | - | 3 W/m² | - |
* Rain latest hour (hover to see other rain measurements)
** Current wind speed in m/s (hover to see current wind gust speed)